Погода в Николаевском

Россия / Карачаево-Черкесская Республика     44°07′03″N   42°07′59″E
темп.,
°C
ветер,
м/с
пор.,
м/с
влажн.,
%
обл.,
%
осадки,
мм/ч
давл.,
гПа
погр.,
м
15 апреля, чт
чт1500:00+4юз228841 0.0 101816
03:00+3ю226929 0.0 101912
06:00+4ю225730 0.0 101915
09:00+10ссв21465 0.0 1017667
12:00+13ссв324290 0.0 10161463
15:00+13ссв424698 0.0 10151384
18:00+10св3561100 0.1 1017353
21:00+7вюв117247 0.1 101810
16 апреля, пт
пт1600:00+6ю227612 0.0 101810
03:00+5ю227118 0.0 101812
06:00+6ююв225995 0.0 101816
09:00+12св2346100 0.0 1016694
12:00+15св554460 0.0 10151811
15:00+12з346658 0.9 1016762
18:00+7ссз2394100 1.2 1019446
21:00+7св229398 1.4 1021191
17 апреля, сб
сб1700:00+7в129292 0.0 1019201
03:00+6ссз1193100 0.0 101927
06:00+6сз2399100 0.1 1020212
09:00+4всв1194100 3.6 1023307
12:00+5св2392100 0.6 1023639
15:00+5св2293100 0.9 1023490
18:00+5вюв1295100 4.1 1023235
21:00+5юв2290100 5.3 1023131
18 апреля, вс
вс1800:00+5юв1191100 0.0 102217
03:00+5юв1190100 0.0 102010
06:00+6юв2288100 0.1 101937
09:00+10св1175100 0.1 1016325
12:00+11ссв3276100 0.2 1015586
15:00+10ссв2389100 1.6 1015490
18:00+8с3299100 1.7 1017415
21:00+6с2199100 2.9 1019204
19 апреля, пн
пн1900:00+6с2199100 0.2 1020146
03:00+6с1097100 0.3 1020125
06:00+6всв1196100 0.0 1020100
09:00+8ссв219295 0.0 1020333
12:00+13ссв3269100 0.0 1018837
15:00+13св4370100 0.1 1018830
18:00+10в358294 0.0 1019449
21:00+8вюв339798 0.0 101991